Location: Unspecified
(0.0000°N, 0.0000°E)
Time: 01:17:06
(UTC+00:00)

Courier 1B Rocket - Pass Details

Date: 08 October 2020
Orbit: 920 x 1202 km, 28.2° (Epoch: 25 October)

Event Time Altitude Azimuth Distance (km) Brightness Sun altitude
Rises 18:51:58 0° 211° (SSW) 3,994 8.8 -16.1°
Reaches altitude 10° 18:57:02 10° 182° (S) 3,085 7.7 -17.3°
Maximum altitude 18:59:54 12° 160° (SSE) 2,933 7.4 -18.0°
Drops below altitude 10° 19:02:49 10° 137° (SE) 3,121 7.3 -18.8°
Enters shadow 19:03:14 - 135° (SE) 3,175 7.3 -18.9°
